WZZ9KH ENGM-EPGD

Flight info

Callsign WZZ9KH
Flight time 1h 11m
Altitude 35000
Route OKSAT L996 GETPA L727 NEGIL DCT PENOR DCT MOTAD N133 DOMAG T240 OGDAV
Aircraft A321/M-SDE3FGHIRWY/LB1

Departure

Time 2026-04-30 21:04
Airport Oslo-Gardermoen International Airport (ENGM)

Arrival

Time 2026-04-30 22:15
Airport Gdańsk Lech Wałęsa Airport (EPGD)
Time Latitude Longitude Altitude Speed Heading
2026-04-30 20:40 60.19580 11.09433 679 ft 0 kts 195°
2026-04-30 20:54 60.19590 11.09439 679 ft 4 kts 195°
2026-04-30 20:55 60.19638 11.09466 675 ft 4 kts 204°
2026-04-30 20:55 60.19658 11.09495 675 ft 4 kts 242°
2026-04-30 20:55 60.19662 11.09541 673 ft 3 kts 285°
2026-04-30 20:56 60.19661 11.09555 676 ft 0 kts 286°
2026-04-30 20:58 60.19661 11.09554 676 ft 0 kts 286°
2026-04-30 20:58 60.19665 11.09527 673 ft 8 kts 286°
2026-04-30 20:58 60.19715 11.09083 678 ft 37 kts 277°
2026-04-30 20:59 60.19888 11.08735 678 ft 19 kts 13°
2026-04-30 20:59 60.20061 11.08828 677 ft 28 kts 17°
2026-04-30 21:00 60.20124 11.09522 678 ft 34 kts 102°
2026-04-30 21:00 60.19989 11.10412 680 ft 32 kts 107°
2026-04-30 21:01 60.19872 11.11247 681 ft 30 kts 106°
2026-04-30 21:01 60.19845 11.11436 681 ft 9 kts 105°
2026-04-30 21:01 60.19920 11.11739 682 ft 18 kts 16°
2026-04-30 21:02 60.20039 11.11806 682 ft 18 kts 21°
2026-04-30 21:02 60.20061 11.11949 683 ft 7 kts 101°
2026-04-30 21:02 60.20055 11.11991 682 ft 1 kts 108°
2026-04-30 21:02 60.20053 11.12002 679 ft 0 kts 108°
2026-04-30 21:03 60.20053 11.12006 680 ft 1 kts 108°
2026-04-30 21:03 60.20047 11.12037 681 ft 7 kts 114°
2026-04-30 21:03 60.19935 11.12138 679 ft 23 kts 194°
2026-04-30 21:03 60.19905 11.12120 679 ft 1 kts 196°
2026-04-30 21:04 60.19875 11.12103 677 ft 18 kts 196°
2026-04-30 21:04 60.19484 11.11876 682 ft 99 kts 196°
2026-04-30 21:04 60.17615 11.10737 1386 ft 131 kts 203°
2026-04-30 21:05 60.16690 11.09972 1910 ft 156 kts 202°
2026-04-30 21:05 60.15626 11.09337 2659 ft 166 kts 199°
2026-04-30 21:05 60.14414 11.08743 3195 ft 194 kts 189°
2026-04-30 21:05 60.12967 11.09166 3582 ft 233 kts 156°
2026-04-30 21:06 60.11611 11.11254 4147 ft 261 kts 136°
2026-04-30 21:06 60.10327 11.14022 4961 ft 277 kts 133°
2026-04-30 21:06 60.09034 11.16948 5939 ft 284 kts 133°
2026-04-30 21:06 60.07689 11.19992 6682 ft 303 kts 134°
2026-04-30 21:07 60.06207 11.23287 6939 ft 334 kts 133°
2026-04-30 21:07 60.04761 11.27187 7003 ft 365 kts 126°
2026-04-30 21:07 60.03284 11.31560 7013 ft 395 kts 121°
2026-04-30 21:07 60.02439 11.36902 7330 ft 410 kts 95°
2026-04-30 21:08 60.02258 11.42503 8542 ft 396 kts 98°
2026-04-30 21:08 60.01388 11.47561 9955 ft 378 kts 123°
2026-04-30 21:08 59.99652 11.51238 11203 ft 354 kts 149°
2026-04-30 21:08 59.97522 11.53132 11766 ft 321 kts 170°
2026-04-30 21:09 59.95382 11.53931 12418 ft 314 kts 173°
2026-04-30 21:09 59.93171 11.54963 12631 ft 339 kts 167°
2026-04-30 21:09 59.90883 11.56683 12782 ft 366 kts 153°
2026-04-30 21:09 59.88749 11.59622 13179 ft 381 kts 146°
2026-04-30 21:10 59.86603 11.62774 13823 ft 386 kts 146°
2026-04-30 21:10 59.84434 11.65979 14480 ft 391 kts 146°
2026-04-30 21:10 59.82244 11.69223 15099 ft 394 kts 146°
2026-04-30 21:10 59.80032 11.72496 15740 ft 398 kts 146°
2026-04-30 21:11 59.77796 11.75797 16385 ft 402 kts 146°
2026-04-30 21:11 59.75537 11.79123 17026 ft 406 kts 146°
2026-04-30 21:11 59.73252 11.82478 17645 ft 411 kts 146°
2026-04-30 21:11 59.70941 11.85862 18285 ft 415 kts 145°
2026-04-30 21:12 59.68612 11.89265 18861 ft 419 kts 145°
2026-04-30 21:12 59.66254 11.92705 19401 ft 423 kts 145°
2026-04-30 21:12 59.63872 11.96172 19946 ft 427 kts 145°
2026-04-30 21:12 59.61471 11.99662 20483 ft 430 kts 144°
2026-04-30 21:13 59.59051 12.03179 21011 ft 434 kts 144°
2026-04-30 21:13 59.56613 12.06718 21478 ft 437 kts 144°
2026-04-30 21:13 59.54158 12.10275 21927 ft 440 kts 144°
2026-04-30 21:13 59.51675 12.13861 22348 ft 443 kts 144°
2026-04-30 21:14 59.49180 12.17450 22755 ft 446 kts 144°
2026-04-30 21:14 59.46669 12.21055 23160 ft 449 kts 144°
2026-04-30 21:14 59.44137 12.24685 23549 ft 451 kts 144°
2026-04-30 21:14 59.41589 12.28329 23928 ft 454 kts 144°
2026-04-30 21:15 59.39029 12.31986 24259 ft 457 kts 144°
2026-04-30 21:15 59.36454 12.35664 24602 ft 459 kts 144°
2026-04-30 21:15 59.33864 12.39361 24926 ft 461 kts 144°
2026-04-30 21:15 59.31261 12.43072 25264 ft 464 kts 144°
2026-04-30 21:16 59.28648 12.46789 25573 ft 466 kts 144°
2026-04-30 21:16 59.26020 12.50512 25931 ft 467 kts 144°
2026-04-30 21:16 59.23382 12.54239 26271 ft 469 kts 144°
2026-04-30 21:16 59.20728 12.57980 26602 ft 471 kts 144°
2026-04-30 21:17 59.18064 12.61731 26902 ft 473 kts 144°
2026-04-30 21:17 59.15388 12.65495 27202 ft 475 kts 144°
2026-04-30 21:17 59.12696 12.69272 27498 ft 478 kts 144°
2026-04-30 21:17 59.09994 12.73055 27796 ft 480 kts 144°
2026-04-30 21:18 59.07279 12.76850 28101 ft 482 kts 144°
2026-04-30 21:18 59.04546 12.80660 28406 ft 484 kts 144°
2026-04-30 21:18 59.01797 12.84479 28707 ft 487 kts 143°
2026-04-30 21:18 58.99031 12.88316 28965 ft 489 kts 143°
2026-04-30 21:19 58.96265 12.92154 29379 ft 489 kts 143°
2026-04-30 21:19 58.93508 12.95972 29821 ft 487 kts 143°
2026-04-30 21:19 58.90755 12.99774 30288 ft 485 kts 143°
2026-04-30 21:19 58.88044 13.03503 30674 ft 484 kts 143°
2026-04-30 21:20 58.85268 13.07313 31032 ft 483 kts 143°
2026-04-30 21:20 58.82567 13.11018 31288 ft 484 kts 143°
2026-04-30 21:20 58.77000 13.18626 31362 ft 496 kts 143°
2026-04-30 21:21 58.71416 13.26219 31646 ft 488 kts 143°
2026-04-30 21:21 58.65931 13.33672 32662 ft 479 kts 143°
2026-04-30 21:22 58.63207 13.37361 33022 ft 478 kts 143°
2026-04-30 21:22 58.55090 13.48309 34107 ft 473 kts 143°
2026-04-30 21:23 58.52396 13.51934 34430 ft 472 kts 143°
2026-04-30 21:23 58.49711 13.55531 34704 ft 471 kts 143°
2026-04-30 21:23 58.44344 13.62688 35228 ft 470 kts 143°
2026-04-30 21:24 58.41654 13.66271 35363 ft 473 kts 143°
2026-04-30 21:24 58.38942 13.69876 35388 ft 478 kts 143°
2026-04-30 21:24 58.33437 13.77178 35390 ft 487 kts 143°
2026-04-30 21:25 58.24998 13.88319 35387 ft 495 kts 143°
2026-04-30 21:25 58.22200 13.91992 35381 ft 484 kts 143°
2026-04-30 21:26 58.16628 13.99275 35381 ft 490 kts 143°
2026-04-30 21:27 58.08138 14.10359 35448 ft 491 kts 143°
2026-04-30 21:27 58.05353 14.13985 35526 ft 480 kts 144°
2026-04-30 21:27 58.02624 14.17524 35355 ft 470 kts 144°
2026-04-30 21:28 57.94470 14.28072 35385 ft 482 kts 143°
2026-04-30 21:29 57.87018 14.37637 35381 ft 492 kts 144°
2026-04-30 21:29 57.78512 14.48495 35376 ft 481 kts 144°
2026-04-30 21:30 57.72962 14.55548 35382 ft 486 kts 144°
2026-04-30 21:31 57.64462 14.66306 35380 ft 498 kts 144°
2026-04-30 21:31 57.58828 14.73404 35388 ft 485 kts 144°
2026-04-30 21:32 57.50333 14.84071 35358 ft 496 kts 144°
2026-04-30 21:32 57.44695 14.91101 35379 ft 474 kts 144°
2026-04-30 21:33 57.36545 15.01198 35368 ft 468 kts 144°
2026-04-30 21:34 57.31122 15.07896 35379 ft 469 kts 144°
2026-04-30 21:34 57.22995 15.17919 35370 ft 471 kts 144°
2026-04-30 21:35 57.17542 15.24615 35384 ft 471 kts 144°
2026-04-30 21:35 57.12076 15.31281 35390 ft 471 kts 144°
2026-04-30 21:36 57.06603 15.37914 35382 ft 471 kts 144°
2026-04-30 21:37 56.95655 15.51176 35394 ft 472 kts 144°
2026-04-30 21:37 56.90165 15.57781 35394 ft 473 kts 144°
2026-04-30 21:38 56.84657 15.64377 35378 ft 473 kts 144°
2026-04-30 21:38 56.79141 15.70972 35388 ft 474 kts 144°
2026-04-30 21:39 56.73619 15.77546 35384 ft 474 kts 144°
2026-04-30 21:39 56.68096 15.84107 35394 ft 474 kts 144°
2026-04-30 21:40 56.62564 15.90643 35413 ft 474 kts 144°
2026-04-30 21:40 56.57026 15.97177 35405 ft 475 kts 144°
2026-04-30 21:41 56.51487 16.03685 35401 ft 475 kts 144°
2026-04-30 21:41 56.45936 16.10176 35397 ft 475 kts 144°
2026-04-30 21:42 56.40381 16.16636 35395 ft 475 kts 144°
2026-04-30 21:42 56.34862 16.23038 35395 ft 475 kts 144°
2026-04-30 21:43 56.29260 16.29521 35402 ft 475 kts 144°
2026-04-30 21:43 56.23763 16.35868 35057 ft 468 kts 144°
2026-04-30 21:44 56.21045 16.38995 34813 ft 460 kts 144°
2026-04-30 21:44 56.18372 16.42059 34570 ft 452 kts 144°
2026-04-30 21:44 56.15749 16.45063 34321 ft 443 kts 144°
2026-04-30 21:44 56.13168 16.48011 34047 ft 435 kts 144°
2026-04-30 21:45 56.10638 16.50895 33769 ft 428 kts 144°
2026-04-30 21:45 56.08148 16.53732 33495 ft 420 kts 144°
2026-04-30 21:45 56.05701 16.56518 33223 ft 413 kts 143°
2026-04-30 21:45 56.03291 16.59261 32879 ft 409 kts 143°
2026-04-30 21:46 56.00896 16.61989 32441 ft 408 kts 143°
2026-04-30 21:46 55.98509 16.64705 32056 ft 406 kts 143°
2026-04-30 21:46 55.96134 16.67400 31683 ft 403 kts 143°
2026-04-30 21:46 55.93774 16.70066 31315 ft 401 kts 143°
2026-04-30 21:47 55.91426 16.72718 30945 ft 398 kts 143°
2026-04-30 21:47 55.89091 16.75351 30578 ft 396 kts 143°
2026-04-30 21:47 55.86770 16.77961 30228 ft 392 kts 143°
2026-04-30 21:47 55.84471 16.80539 29805 ft 390 kts 143°
2026-04-30 21:48 55.82188 16.83105 29385 ft 387 kts 143°
2026-04-30 21:48 55.79908 16.85671 28637 ft 393 kts 143°
2026-04-30 21:48 55.77571 16.88350 27368 ft 413 kts 139°
2026-04-30 21:48 55.75237 16.91509 26040 ft 431 kts 137°
2026-04-30 21:49 55.72847 16.94905 24682 ft 450 kts 136°
2026-04-30 21:49 55.70385 16.98481 23325 ft 465 kts 136°
2026-04-30 21:49 55.67865 17.02162 22277 ft 470 kts 136°
2026-04-30 21:49 55.65367 17.05778 21981 ft 457 kts 136°
2026-04-30 21:50 55.62929 17.09269 21715 ft 446 kts 136°
2026-04-30 21:50 55.60472 17.12781 21464 ft 464 kts 136°
2026-04-30 21:50 55.57913 17.16446 21205 ft 476 kts 136°
2026-04-30 21:50 55.55307 17.20161 20950 ft 490 kts 136°
2026-04-30 21:51 55.52654 17.23933 20825 ft 483 kts 136°
2026-04-30 21:51 55.50064 17.27554 20573 ft 467 kts 137°
2026-04-30 21:51 55.47536 17.30986 20326 ft 452 kts 137°
2026-04-30 21:51 55.45067 17.34268 20081 ft 438 kts 138°
2026-04-30 21:52 55.42660 17.37431 19842 ft 426 kts 138°
2026-04-30 21:52 55.40312 17.40511 19600 ft 416 kts 137°
2026-04-30 21:52 55.38017 17.43536 19383 ft 411 kts 137°
2026-04-30 21:52 55.35741 17.46561 19146 ft 411 kts 137°
2026-04-30 21:53 55.33492 17.49562 18659 ft 414 kts 137°
2026-04-30 21:53 55.31163 17.52680 17470 ft 427 kts 137°
2026-04-30 21:53 55.28768 17.55876 16376 ft 436 kts 138°
2026-04-30 21:53 55.26378 17.59039 15634 ft 435 kts 138°
2026-04-30 21:54 55.23965 17.62212 14984 ft 431 kts 139°
2026-04-30 21:54 55.21574 17.65337 14387 ft 427 kts 139°
2026-04-30 21:54 55.19202 17.68433 13773 ft 424 kts 139°
2026-04-30 21:54 55.16846 17.71508 13137 ft 420 kts 139°
2026-04-30 21:55 55.14517 17.74554 12522 ft 415 kts 139°
2026-04-30 21:55 55.12157 17.77657 12112 ft 440 kts 139°
2026-04-30 21:55 55.09759 17.80815 12939 ft 427 kts 139°
2026-04-30 21:55 55.07397 17.83910 13262 ft 421 kts 139°
2026-04-30 21:56 55.05061 17.86951 12637 ft 417 kts 139°
2026-04-30 21:56 55.02747 17.89955 11982 ft 413 kts 139°
2026-04-30 21:56 55.00442 17.92938 11477 ft 421 kts 139°
2026-04-30 21:56 54.98068 17.96018 11447 ft 415 kts 140°
2026-04-30 21:57 54.95793 17.98913 11122 ft 400 kts 140°
2026-04-30 21:57 54.93580 18.01712 10016 ft 398 kts 140°
2026-04-30 21:57 54.91363 18.04536 8908 ft 393 kts 140°
2026-04-30 21:57 54.89183 18.07345 7956 ft 386 kts 140°
2026-04-30 21:58 54.87088 18.10060 7587 ft 363 kts 140°
2026-04-30 21:58 54.85130 18.12588 7429 ft 339 kts 140°
2026-04-30 21:58 54.83308 18.14922 7395 ft 311 kts 140°
2026-04-30 21:58 54.81631 18.17049 7380 ft 289 kts 140°
2026-04-30 21:59 54.80051 18.19056 7393 ft 277 kts 140°
2026-04-30 21:59 54.78514 18.21028 7390 ft 276 kts 140°
2026-04-30 21:59 54.76999 18.22979 7384 ft 268 kts 140°
2026-04-30 22:00 54.73957 18.26876 7389 ft 270 kts 140°
2026-04-30 22:00 54.70958 18.30718 7392 ft 271 kts 140°
2026-04-30 22:00 54.69430 18.32667 7394 ft 273 kts 140°
2026-04-30 22:01 54.67916 18.34598 7388 ft 267 kts 140°
2026-04-30 22:01 54.66442 18.36483 7373 ft 260 kts 140°
2026-04-30 22:01 54.64972 18.38359 6843 ft 266 kts 140°
2026-04-30 22:01 54.63512 18.40220 6598 ft 251 kts 140°
2026-04-30 22:02 54.62140 18.41978 6305 ft 238 kts 140°
2026-04-30 22:02 54.60855 18.43613 5969 ft 225 kts 140°
2026-04-30 22:02 54.59570 18.45251 5769 ft 233 kts 140°
2026-04-30 22:02 54.58291 18.46880 5430 ft 226 kts 140°
2026-04-30 22:03 54.57015 18.48503 5111 ft 223 kts 140°
2026-04-30 22:03 54.55813 18.50029 5024 ft 211 kts 140°
2026-04-30 22:03 54.54663 18.51480 5038 ft 199 kts 140°
2026-04-30 22:03 54.53535 18.52896 5046 ft 198 kts 140°
2026-04-30 22:04 54.52435 18.54270 5047 ft 203 kts 140°
2026-04-30 22:04 54.51240 18.55765 5049 ft 207 kts 141°
2026-04-30 22:04 54.49069 18.58469 5030 ft 184 kts 141°
2026-04-30 22:05 54.47993 18.59822 5057 ft 204 kts 140°
2026-04-30 22:05 54.46808 18.61320 5033 ft 209 kts 141°
2026-04-30 22:05 54.45636 18.62799 5037 ft 212 kts 141°
2026-04-30 22:05 54.44429 18.64318 5040 ft 216 kts 141°
2026-04-30 22:06 54.43206 18.65851 5040 ft 218 kts 141°
2026-04-30 22:06 54.40741 18.68924 5037 ft 219 kts 141°
2026-04-30 22:06 54.39507 18.70464 5037 ft 219 kts 141°
2026-04-30 22:07 54.38423 18.72260 5049 ft 216 kts 126°
2026-04-30 22:07 54.37424 18.74191 5033 ft 219 kts 138°
2026-04-30 22:07 54.36162 18.75640 4997 ft 215 kts 144°
2026-04-30 22:07 54.34918 18.77028 4402 ft 213 kts 144°
2026-04-30 22:08 54.33687 18.78399 3774 ft 206 kts 144°
2026-04-30 22:08 54.32493 18.79726 3001 ft 203 kts 145°
2026-04-30 22:08 54.31320 18.81032 2293 ft 200 kts 145°
2026-04-30 22:08 54.30208 18.82279 2238 ft 181 kts 144°
2026-04-30 22:09 54.29217 18.83395 2345 ft 162 kts 145°
2026-04-30 22:09 54.28163 18.83896 2432 ft 163 kts 182°
2026-04-30 22:09 54.27044 18.83369 2593 ft 173 kts 213°
2026-04-30 22:09 54.26348 18.81782 2857 ft 168 kts 260°
2026-04-30 22:10 54.26424 18.79797 3039 ft 183 kts 285°
2026-04-30 22:10 54.26556 18.77464 3236 ft 204 kts 277°
2026-04-30 22:10 54.26789 18.75259 3452 ft 172 kts 292°
2026-04-30 22:10 54.27336 18.73640 3545 ft 146 kts 311°
2026-04-30 22:11 54.28880 18.71182 2306 ft 164 kts 320°
2026-04-30 22:11 54.29666 18.69749 2053 ft 160 kts 313°
2026-04-30 22:11 54.30327 18.68349 2031 ft 144 kts 311°
2026-04-30 22:12 54.30926 18.67072 2023 ft 132 kts 314°
2026-04-30 22:12 54.31524 18.65930 2034 ft 132 kts 316°
2026-04-30 22:12 54.32217 18.64725 2039 ft 151 kts 323°
2026-04-30 22:12 54.33002 18.63675 1909 ft 134 kts 322°
2026-04-30 22:13 54.33692 18.62412 1758 ft 150 kts 311°
2026-04-30 22:13 54.34218 18.61087 1880 ft 141 kts 303°
2026-04-30 22:13 54.34619 18.59336 1835 ft 166 kts 297°
2026-04-30 22:13 54.35008 18.57607 1723 ft 141 kts 294°
2026-04-30 22:14 54.35260 18.56542 1510 ft 146 kts 297°
2026-04-30 22:14 54.35846 18.54466 1387 ft 143 kts 296°
2026-04-30 22:14 54.36076 18.53418 1274 ft 131 kts 294°
2026-04-30 22:14 54.36437 18.51960 1069 ft 143 kts 297°
2026-04-30 22:15 54.36963 18.49843 700 ft 136 kts 294°
2026-04-30 22:15 54.37201 18.48838 488 ft 131 kts 297°
2026-04-30 22:15 54.37516 18.47607 463 ft 75 kts 292°
2026-04-30 22:15 54.37655 18.47043 455 ft 39 kts 297°
2026-04-30 22:16 54.37818 18.46754 453 ft 29 kts 320°
2026-04-30 22:16 54.37953 18.46593 452 ft 13 kts 348°
2026-04-30 22:17 54.38080 18.46655 452 ft 0 kts 24°